CW4621 Weather Reports


Display with metric or nautical units.
time (UTC)temp
F
wind
direction
speed
MPH
gust
MPH
rain 1hr
in
rain 24hr
in
rain mn
in
humidity
%
barometer
mb
20260906172605 79 98 0.0 3.0 0.00 0.00 0.00 56 1014.2
20260906172104 79 6 2.0 5.0 0.00 0.00 0.00 55 1014.2
20260906171604 79 343 1.0 2.0 0.00 0.00 0.00 57 1014.2
20260906170604 80 8 1.0 5.0 0.00 0.00 0.00 55 1014.2
20260906170106 80 5 1.0 2.0 0.00 0.00 0.00 56 1014.2
20260906165603 79 24 0.0 3.0 0.00 0.00 0.00 57 1014.2
20260906164604 78 14 1.0 6.0 0.00 0.00 0.00 58 1014.3
20260906164104 78 359 2.0 7.0 0.00 0.00 0.00 59 1014.3
20260906163604 78 324 1.0 3.0 0.00 0.00 0.00 59 1014.3
20260906163104 78 17 2.0 8.0 0.00 0.00 0.00 58 1014.4
20260906162604 79 18 1.0 3.0 0.00 0.00 0.00 60 1014.4
20260906161604 78 351 2.0 5.0 0.00 0.00 0.00 61 1014.4
20260906161105 77 22 1.0 3.0 0.00 0.00 0.00 61 1014.4
20260906160604 76 39 2.0 5.0 0.00 0.00 0.00 62 1014.4
20260906160105 76 52 0.0 3.0 0.00 0.00 0.00 62 1014.5
20260906155604 77 333 3.0 7.0 0.00 0.00 0.00 60 1014.5
20260906155104 78 31 1.0 3.0 0.00 0.00 0.00 64 1014.4
20260906154604 77 43 1.0 10.0 0.00 0.00 0.00 64 1014.4
20260906154104 76 31 1.0 8.0 0.00 0.00 0.00 65 1014.4
20260906153604 76 26 1.0 7.0 0.00 0.00 0.00 64 1014.4
20260906152605 76 12 2.0 5.0 0.00 0.00 0.00 64 1014.4
20260906152105 76 8 0.0 6.0 0.00 0.00 0.00 67 1014.5
20260906151605 76 299 1.0 3.0 0.00 0.00 0.00 66 1014.5
20260906150604 76 16 1.0 5.0 0.00 0.00 0.00 65 1014.6
20260906150105 76 17 1.0 3.0 0.00 0.00 0.00 66 1014.5
20260906145604 76 24 2.0 3.0 0.00 0.00 0.00 65 1014.5
20260906144604 76 2 2.0 5.0 0.00 0.00 0.00 65 1014.3
20260906143606 77 24 0.0 3.0 0.00 0.00 0.00 66 1014.4
20260906142604 76 314 1.0 2.0 0.00 0.00 0.00 67 1014.3
20260906142105 76 32 1.0 3.0 0.00 0.00 0.00 67 1014.3
20260906141604 75 28 1.0 3.0 0.00 0.00 0.00 68 1014.4
20260906140605 75 29 1.0 5.0 0.00 0.00 0.00 70 1014.3
20260906140105 74 356 1.0 3.0 0.00 0.00 0.00 71 1014.2
20260906135604 74 246 0.0 2.0 0.00 0.00 0.00 72 1014.2
20260906135104 74 353 0.0 2.0 0.00 0.00 0.00 72 1014.2
20260906134104 73 329 1.0 3.0 0.00 0.00 0.00 72 1014.1
20260906133604 73 21 1.0 3.0 0.00 0.00 0.00 73 1014.1
20260906133105 72 23 2.0 6.0 0.00 0.00 0.00 72 1014.1
20260906132104 72 349 1.0 6.0 0.00 0.00 0.00 73 1014.1
20260906130604 72 6 1.0 3.0 0.00 0.00 0.00 73 1014.1
20260906130104 72 348 1.0 3.0 0.00 0.00 0.00 73 1014.0
20260906124605 71 3 0.0 1.0 0.00 0.00 0.00 73 1014.0
20260906124105 71 262 1.0 3.0 0.00 0.00 0.00 73 1013.9
20260906123606 71 343 0.0 3.0 0.00 0.00 0.00 73 1013.9
20260906123104 70 0 0.0 1.0 0.00 0.00 0.00 74 1013.8
20260906122604 69 359 0.0 2.0 0.00 0.00 0.00 74 1013.8
20260906122104 69 344 0.0 2.0 0.00 0.00 0.00 74 1013.8
20260906121605 69 356 1.0 3.0 0.00 0.00 0.00 74 1013.9
20260906121104 69 356 0.0 1.0 0.00 0.00 0.00 75 1013.8
20260906120605 68 44 1.0 3.0 0.00 0.00 0.00 75 1013.7
20260906120104 68 352 0.0 1.0 0.00 0.00 0.00 76 1013.6
20260906115604 67 336 0.0 1.0 0.00 0.00 0.00 79 1013.6
20260906115105 66 336 0.0 1.0 0.00 0.00 0.00 83 1013.6
20260906114604 64 330 0.0 1.0 0.00 0.00 0.00 89 1013.6
20260906114105 63 19 0.0 1.0 0.00 0.00 0.00 92 1013.4
20260906113604 62 36 0.0 1.0 0.00 0.00 0.00 92 1013.4
20260906113104 62 318 0.0 0.0 0.00 0.00 0.00 92 1013.3
20260906112105 61 311 0.0 0.0 0.00 0.00 0.00 91 1013.1
20260906111604 61 311 0.0 0.0 0.00 0.00 0.00 89 1013.0
20260906111104 60 311 0.0 0.0 0.00 0.00 0.00 88 1013.0
20260906110605 60 311 0.0 0.0 0.00 0.00 0.00 88 1013.0
20260906110104 60 311 0.0 0.0 0.00 0.00 0.00 87 1013.0
20260906105605 60 311 0.0 0.0 0.00 0.00 0.00 86 1012.9
20260906105104 60 311 0.0 0.0 0.00 0.00 0.00 86 1012.8
20260906103605 60 311 0.0 0.0 0.00 0.00 0.00 85 1012.7
20260906103105 60 311 0.0 0.0 0.00 0.00 0.00 85 1012.5
20260906102604 61 311 0.0 0.0 0.00 0.00 0.00 85 1012.4
20260906102105 61 311 0.0 0.0 0.00 0.00 0.00 85 1012.3
20260906101604 61 311 0.0 2.0 0.00 0.00 0.00 85 1012.3
20260906101105 61 349 0.0 0.0 0.00 0.00 0.00 84 1012.3
20260906100605 61 349 0.0 0.0 0.00 0.00 0.00 83 1012.3
20260906100105 60 349 0.0 0.0 0.00 0.00 0.00 83 1012.2
20260906095604 60 349 0.0 0.0 0.00 0.00 0.00 82 1012.2
20260906095104 61 349 0.0 0.0 0.00 0.00 0.00 82 1012.1
20260906094605 61 349 0.0 0.0 0.00 0.00 0.00 82 1012.0
20260906094104 61 349 0.0 0.0 0.00 0.00 0.00 82 1012.0
20260906093604 61 349 0.0 0.0 0.00 0.00 0.00 82 1011.9
20260906093104 61 349 0.0 0.0 0.00 0.00 0.00 82 1011.8
20260906092604 61 349 0.0 0.0 0.00 0.00 0.00 82 1011.7
20260906091604 61 349 0.0 0.0 0.00 0.00 0.00 82 1011.4
20260906090605 61 349 0.0 0.0 0.00 0.00 0.00 81 1011.5
20260906090104 62 349 0.0 0.0 0.00 0.00 0.00 82 1011.5
20260906085605 61 349 0.0 0.0 0.00 0.00 0.00 81 1011.5
20260906085105 62 349 0.0 0.0 0.00 0.00 0.00 81 1011.3
20260906084604 62 349 0.0 0.0 0.00 0.00 0.00 81 1011.3
20260906084104 62 349 0.0 0.0 0.00 0.00 0.00 81 1011.2
20260906083605 62 349 0.0 1.0 0.00 0.00 0.00 81 1011.1
20260906083104 62 349 0.0 0.0 0.00 0.00 0.00 81 1011.1
20260906082104 62 349 0.0 0.0 0.00 0.00 0.00 81 1011.0
20260906081604 62 349 0.0 0.0 0.00 0.00 0.00 81 1011.0
20260906081105 62 349 0.0 0.0 0.00 0.00 0.00 80 1011.0
20260906080604 62 349 0.0 0.0 0.00 0.00 0.00 80 1011.0
20260906080105 62 349 0.0 0.0 0.00 0.00 0.00 80 1011.0
20260906075604 62 349 0.0 0.0 0.00 0.00 0.00 80 1011.0
20260906074605 62 349 0.0 0.0 0.00 0.00 0.00 80 1011.0
20260906074104 62 349 0.0 0.0 0.00 0.00 0.00 80 1011.0
20260906073604 62 349 0.0 0.0 0.00 0.00 0.00 80 1011.0
20260906072105 63 349 0.0 0.0 0.00 0.00 0.00 80 1011.0
20260906071604 63 349 0.0 0.0 0.00 0.00 0.00 80 1011.0
20260906070105 63 349 0.0 0.0 0.00 0.00 0.00 81 1011.0
20260906065604 63 349 0.0 0.0 0.00 0.00 0.00 80 1010.9
20260906065104 62 349 0.0 0.0 0.00 0.00 0.00 80 1011.0
20260906064604 62 349 0.0 0.0 0.00 0.00 0.00 80 1011.0
20260906064105 62 349 0.0 0.0 0.00 0.00 0.00 80 1011.0
20260906063604 62 349 0.0 0.0 0.00 0.00 0.00 80 1011.0
20260906063104 62 349 0.0 0.0 0.00 0.00 0.00 80 1011.1
20260906062604 62 349 0.0 0.0 0.00 0.00 0.00 80 1011.1
20260906062104 62 349 0.0 0.0 0.00 0.00 0.00 79 1011.1
20260906061604 62 349 0.0 0.0 0.00 0.00 0.00 79 1011.2
20260906061104 62 349 0.0 0.0 0.00 0.00 0.00 79 1011.2
20260906060104 63 349 0.0 0.0 0.00 0.00 0.00 79 1011.3
20260906055604 63 349 0.0 0.0 0.00 0.00 0.00 79 1011.3
20260906055104 63 349 0.0 0.0 0.00 0.00 0.00 79 1011.3
20260906054605 63 349 0.0 0.0 0.00 0.00 0.00 79 1011.3
20260906054105 63 349 0.0 0.0 0.00 0.00 0.00 78 1011.3
20260906053604 63 349 0.0 0.0 0.00 0.00 0.00 78 1011.4
20260906053104 63 349 0.0 0.0 0.00 0.00 0.00 78 1011.4
20260906052604 63 349 0.0 0.0 0.00 0.00 0.00 78 1011.4
20260906052104 64 349 0.0 0.0 0.00 0.00 0.00 78 1011.4
20260906051604 64 349 0.0 0.0 0.00 0.00 0.00 78 1011.4
20260906051104 64 349 0.0 0.0 0.00 0.00 0.00 78 1011.4
20260906050604 64 349 0.0 0.0 0.00 0.00 0.00 78 1011.5
20260906050104 64 349 0.0 0.0 0.00 0.00 0.00 78 1011.5
20260906045604 64 349 0.0 0.0 0.00 0.00 0.00 78 1011.5
20260906044604 64 349 0.0 0.0 0.00 0.00 0.00 78 1011.5
20260906044104 64 349 0.0 0.0 0.00 0.00 0.00 77 1011.6
20260906043604 64 349 0.0 0.0 0.00 0.00 0.00 77 1011.6
20260906043105 64 349 0.0 0.0 0.00 0.00 0.00 78 1011.6
20260906042104 64 349 0.0 0.0 0.00 0.00 0.00 77 1011.6
20260906041604 64 349 0.0 0.0 0.00 0.00 0.00 76 1011.6
20260906041105 65 349 0.0 0.0 0.00 0.00 0.00 76 1011.6
20260906040605 65 349 0.0 0.0 0.00 0.00 0.00 76 1011.5
20260906040104 65 349 0.0 0.0 0.00 0.00 0.00 77 1011.4
20260906035604 65 349 0.0 0.0 0.00 0.00 0.00 77 1011.4
20260906035104 65 349 0.0 0.0 0.00 0.00 0.00 76 1011.4
20260906034604 65 349 0.0 0.0 0.00 0.00 0.00 76 1011.5
20260906033604 65 349 0.0 0.0 0.00 0.00 0.00 75 1011.5
20260906033104 65 349 0.0 0.0 0.00 0.00 0.00 75 1011.4
20260906032604 66 349 0.0 0.0 0.00 0.00 0.00 75 1011.4
20260906032105 66 349 0.0 0.0 0.00 0.00 0.00 75 1011.4
20260906031604 66 349 0.0 0.0 0.00 0.00 0.00 75 1011.3
20260906031105 66 349 0.0 0.0 0.00 0.00 0.00 74 1011.2
20260906030604 66 349 0.0 0.0 0.00 0.00 0.00 74 1011.2
20260906025605 66 349 0.0 0.0 0.00 0.00 0.00 73 1011.2
20260906025106 66 349 0.0 0.0 0.00 0.00 0.00 73 1011.2
20260906024605 66 349 0.0 0.0 0.00 0.00 0.00 73 1011.2
20260906024104 67 349 0.0 0.0 0.00 0.00 0.00 73 1011.2
20260906023605 67 349 0.0 0.0 0.00 0.00 0.00 73 1011.2
20260906023104 67 349 0.0 0.0 0.00 0.00 0.00 72 1011.2
20260906022605 67 349 0.0 0.0 0.00 0.00 0.00 73 1011.2
20260906022104 67 349 0.0 0.0 0.00 0.00 0.00 72 1011.1
20260906021605 67 349 0.0 0.0 0.00 0.00 0.00 72 1011.1
20260906021105 67 349 0.0 0.0 0.00 0.00 0.00 71 1011.1
20260906020605 67 349 0.0 0.0 0.00 0.00 0.00 71 1011.2
20260906015604 68 349 0.0 0.0 0.00 0.00 0.00 71 1011.1
20260906015105 68 349 0.0 0.0 0.00 0.00 0.00 71 1011.0
20260906014604 68 349 0.0 0.0 0.00 0.00 0.00 70 1010.9
20260906013605 68 349 0.0 0.0 0.00 0.00 0.00 69 1010.8
20260906012605 69 349 0.0 0.0 0.00 0.00 0.00 69 1010.8
20260906012105 69 349 0.0 0.0 0.00 0.00 0.00 68 1010.7
20260906011605 69 349 0.0 0.0 0.00 0.00 0.00 68 1010.5
20260906011105 69 349 0.0 0.0 0.00 0.00 0.00 67 1010.5
20260906010605 69 349 0.0 0.0 0.00 0.00 0.00 67 1010.5
20260906010105 70 349 0.0 0.0 0.00 0.00 0.00 67 1010.5
20260906005605 70 349 0.0 0.0 0.00 0.00 0.00 66 1010.5
20260906004105 71 349 0.0 0.0 0.00 0.00 0.00 63 1010.5
20260906003605 71 349 0.0 0.0 0.00 0.00 0.00 64 1010.4
20260906003105 71 349 0.0 0.0 0.00 0.00 0.00 63 1010.3
20260906002604 71 349 0.0 0.0 0.00 0.00 0.00 63 1010.2
20260906002105 72 349 0.0 0.0 0.00 0.00 0.00 62 1010.2
20260906001104 72 349 0.0 0.0 0.00 0.00 0.00 61 1010.1
20260906000605 73 349 0.0 0.0 0.00 0.00 0.00 60 1010.0
20260906000105 73 349 0.0 0.0 0.00 0.00 0.00 60 1010.0
20260905235604 73 349 0.0 0.0 0.00 0.00 0.00 59 1009.9
20260905235104 73 349 0.0 1.0 0.00 0.00 0.00 59 1009.8
20260905234605 74 349 0.0 1.0 0.00 0.00 0.00 59 1009.7
20260905234105 74 347 0.0 1.0 0.00 0.00 0.00 59 1009.6
20260905233604 74 347 0.0 0.0 0.00 0.00 0.00 59 1009.6
20260905233104 75 347 0.0 0.0 0.00 0.00 0.00 58 1009.5
20260905232604 76 347 0.0 0.0 0.00 0.00 0.00 57 1009.5
20260905232105 76 347 0.0 0.0 0.00 0.00 0.00 57 1009.5
20260905225605 78 345 0.0 1.0 0.00 0.00 0.00 53 1009.5
20260905225105 78 345 0.0 1.0 0.00 0.00 0.00 53 1009.5
20260905223604 79 20 0.0 3.0 0.00 0.00 0.00 52 1009.4
20260905223105 79 68 0.0 1.0 0.00 0.00 0.00 52 1009.5
20260905222604 79 12 0.0 2.0 0.00 0.00 0.00 51 1009.5
20260905221605 80 11 1.0 3.0 0.00 0.00 0.00 50 1009.4
20260905221105 80 46 0.0 2.0 0.00 0.00 0.00 49 1009.3
20260905220605 81 306 1.0 3.0 0.00 0.00 0.00 50 1009.2
20260905220105 81 12 1.0 2.0 0.00 0.00 0.00 49 1009.2
20260905215604 81 331 0.0 3.0 0.00 0.00 0.00 50 1009.2
20260905215104 82 291 2.0 7.0 0.00 0.00 0.00 49 1009.2
20260905214105 82 72 1.0 2.0 0.00 0.00 0.00 49 1009.2
20260905213605 81 310 1.0 3.0 0.00 0.00 0.00 50 1009.2
20260905213105 81 352 1.0 5.0 0.00 0.00 0.00 49 1009.2
20260905212605 81 341 1.0 3.0 0.00 0.00 0.00 49 1009.2
20260905212105 81 139 0.0 3.0 0.00 0.00 0.00 49 1009.1
20260905211604 82 34 1.0 8.0 0.00 0.00 0.00 49 1009.1
20260905211104 81 350 1.0 3.0 0.00 0.00 0.00 49 1009.1
20260905210605 81 57 1.0 3.0 0.00 0.00 0.00 49 1009.1
20260905205605 80 277 0.0 3.0 0.00 0.00 0.00 52 1009.1
20260905205105 80 3 0.0 3.0 0.00 0.00 0.00 51 1009.1
20260905204605 81 15 2.0 6.0 0.00 0.00 0.00 50 1009.1
20260905203604 81 6 0.0 3.0 0.00 0.00 0.00 50 1009.0
20260905202604 82 23 2.0 7.0 0.00 0.00 0.00 48 1009.1
20260905202104 82 346 1.0 3.0 0.00 0.00 0.00 50 1009.1
20260905201605 82 0 1.0 3.0 0.00 0.00 0.00 49 1009.1
20260905201104 82 20 1.0 7.0 0.00 0.00 0.00 48 1009.1
20260905200105 81 30 0.0 1.0 0.00 0.00 0.00 52 1009.2
20260905195604 81 41 0.0 0.0 0.00 0.00 0.00 50 1009.3
20260905195104 81 4 1.0 2.0 0.00 0.00 0.00 49 1009.3
20260905194604 82 16 1.0 3.0 0.00 0.00 0.00 48 1009.4
20260905194104 82 29 0.0 3.0 0.00 0.00 0.00 48 1009.4
20260905193604 82 33 0.0 3.0 0.00 0.00 0.00 49 1009.4
20260905193104 82 226 1.0 3.0 0.00 0.00 0.00 48 1009.4
20260905192604 82 280 1.0 3.0 0.00 0.00 0.00 49 1009.4
20260905192104 82 56 1.0 3.0 0.00 0.00 0.00 49 1009.5
20260905191604 82 33 1.0 3.0 0.00 0.00 0.00 49 1009.5
20260905191104 82 343 1.0 2.0 0.00 0.00 0.00 48 1009.5
20260905190604 82 81 0.0 3.0 0.00 0.00 0.00 48 1009.6
20260905190104 82 7 1.0 3.0 0.00 0.00 0.00 48 1009.5
20260905185604 83 23 1.0 3.0 0.00 0.00 0.00 46 1009.4
20260905185105 83 17 1.0 2.0 0.00 0.00 0.00 46 1009.5
20260905183604 83 213 0.0 3.0 0.00 0.00 0.00 47 1009.5
20260905183105 83 347 2.0 5.0 0.00 0.00 0.00 46 1009.6
20260905182604 83 68 0.0 3.0 0.00 0.00 0.00 46 1009.6
20260905182105 83 31 1.0 7.0 0.00 0.00 0.00 46 1009.7
20260905181104 83 205 1.0 6.0 0.00 0.00 0.00 44 1009.8
20260905180604 83 344 1.0 2.0 0.00 0.00 0.00 45 1009.8
20260905180104 82 346 1.0 5.0 0.00 0.00 0.00 44 1009.8
20260905175605 82 356 2.0 6.0 0.00 0.00 0.00 45 1009.9
20260905175104 82 30 2.0 3.0 0.00 0.00 0.00 46 1009.9
20260905174604 82 1 1.0 5.0 0.00 0.00 0.00 47 1009.9
20260905174104 82 244 1.0 7.0 0.00 0.00 0.00 47 1009.9
20260905173604 82 318 1.0 6.0 0.00 0.00 0.00 46 1010.0
20260905173104 82 349 1.0 5.0 0.00 0.00 0.00 47 1010.0